[[{"header":{"parameterUnit":"m.s-1","parameterCategory":1,"la1":30.2991,"la2":30.254,"lo1":-89.0895,"lo2":-89.0444,"dx":0.0017,"dy":0.0017,"nx":28,"ny":28,"refTime":"2022-12-13T15:00:00:Z","depth":0,"parameterNumber":2,"parameterNumberName":"U-component_of_WINDS"},"data":[0,0,0,0,0,0,0,0,0,0,0,0,0,0,0,0,0,0,0,0,0,0,0,0,0,0,0,0,0,0,0,0,0,0,0,0,0,0,0,0,0,0,0,0,0,0,0,0,0,0,0,0,0,0,0,0,0,0,-7.0781,-7.0783,0,-7.097,-7.0972,-7.0974,-7.0989,-7.0987,-7.0985,-7.0983,-7.1175,-7.1182,-7.1189,0,0,0,0,0,0,0,0,0,0,0,0,0,-7.0432,-7.0439,-7.078,-7.0783,-7.0785,-7.097,-7.0972,-7.0975,-7.099,-7.0987,-7.0985,-7.0983,-7.1173,-7.1181,-7.119,0,0,0,0,0,0,0,0,0,0,0,0,0,-7.0599,-7.0441,-7.078,-7.0815,-7.082,-7.0969,-7.0972,-7.0975,-7.099,-7.0987,-7.0984,-7.0981,-7.117,-7.1181,-7.1191,-7.1317,0,0,-7.1223,-7.1228,0,0,0,0,0,0,0,0,-7.0589,-7.0611,-7.0807,-7.0813,-7.0819,-7.0953,-7.092,-7.109,-7.0991,-7.0926,-7.0983,-7.098,-7.1104,-7.112,-7.1162,-7.1326,-7.1335,-7.1224,-7.123,-7.1235,-7.1238,0,0,0,0,0,0,0,-7.0578,-7.0603,-7.0855,-7.081,-7.0817,-7.0821,-7.0842,-7.0952,-7.1029,-7.0931,-7.0933,-7.0955,-7.1106,-7.1152,-7.1166,-7.1337,-7.1224,-7.1233,-7.124,-7.1244,-7.1618,-7.1622,0,0,0,0,0,0,-7.056,-7.0594,-7.0849,-7.0861,-7.0694,-7.083,-7.0853,-7.0913,-7.1028,-7.1043,-7.0957,-7.0955,-7.1135,-7.1154,-7.1173,-7.1329,-7.1235,-7.1245,-7.1251,-7.1614,-7.1619,-7.1623,0,0,0,0,0,0,-7.0552,-7.0582,-7.0842,-7.0728,-7.0761,-7.084,-7.0907,-7.0918,-7.0963,-7.1048,-7.1062,-7.0989,-7.1133,-7.1158,-7.1282,-7.1336,-7.1249,-7.1259,-7.161,-7.1616,-7.1621,-7.1641,0,0,0,0,0,0,-7.0542,-7.0579,-7.0628,-7.0729,-7.0767,-7.0947,-7.091,-7.0924,-7.0982,-7.0981,-7.1082,-7.1096,-7.1133,-7.1266,-7.1293,-7.1349,-7.1267,-7.1606,-7.1613,-7.1619,-7.1636,-7.1647,-7.1656,0,0,0,0,0,-7.053,-7.0625,-7.063,-7.0661,-7.0829,-7.095,-7.0972,-7.1013,-7.0986,-7.1035,-7.1091,-7.1093,-7.1327,-7.1279,-7.1309,-7.1369,-7.1602,-7.1611,-7.1619,-7.1631,-7.1645,-7.1656,0,0,0,0,0,0,-7.0525,-7.0638,-7.0645,-7.0776,-7.0854,-7.0952,-7.1015,-7.1025,-7.1111,-7.1106,-7.1154,-7.1176,-7.1298,-7.1347,-7.1291,-7.1499,-7.1462,-7.1476,-7.1461,-7.1475,-7.1484,-7.1468,-7.1276,0,0,0,0,0,-7.054,-7.0629,-7.0723,-7.083,-7.0869,-7.0936,-7.0989,-7.1015,-7.1097,-7.1129,-7.1193,-7.1272,-7.1364,-7.1423,-7.1511,-7.1645,-7.1667,-7.1702,-7.1712,-7.1719,-7.173,-7.1805,-7.1821,-7.165,-7.165,-7.1649,0,0,-7.057,-7.0643,-7.0696,-7.0831,-7.0894,-7.0984,-7.0962,-7.1059,-7.1127,-7.1144,-7.1264,-7.1315,-7.1406,-7.1536,-7.1596,-7.1579,-7.1783,-7.173,-7.1735,-7.1742,-7.1815,-7.1831,-7.1846,-7.1655,-7.1654,-7.1653,0,0,-7.0671,-7.0736,-7.0832,-7.0897,-7.0994,-7.1038,-7.1062,-7.1161,-7.1195,-7.1318,-7.1333,-7.1415,-7.1572,-7.1636,-7.169,-7.1822,-7.1827,-7.185,-7.19,-7.1973,-7.1986,-7.1998,-7.2044,-7.206,-7.1862,-7.1862,-7.1862,0,-7.0696,-7.0833,-7.088,-7.0977,-7.1036,-7.1059,-7.1157,-7.1218,-7.1338,-7.1378,-7.136,-7.1559,-7.1622,-7.1767,-7.18,-7.1843,-7.1871,-7.1836,-7.1981,-7.1994,-7.2006,-7.205,-7.2067,-7.1864,-7.1863,-7.1863,-7.1863,0,-7.0859,-7.0955,-7.1021,-7.1138,-7.1206,-7.1303,-7.1364,-7.1428,-7.145,-7.1497,-7.1623,-7.1701,-7.1806,-7.1844,-7.1865,-7.1993,-7.198,-7.1971,-7.1934,-7.2023,-7.2065,-7.2083,-7.1866,-7.1866,-7.1865,-7.1865,0,0,-7.0955,-7.1102,-7.1125,-7.118,-7.1291,-7.1366,-7.1466,-7.1571,-7.1623,-7.1708,-7.1792,-7.1927,-7.192,-7.1981,-7.2011,-7.2076,-7.2175,-7.2059,-7.2061,-7.2075,-7.232,-7.2324,-7.2342,-7.2181,-7.2185,-7.2187,-7.2312,0,-7.1067,-7.1244,-7.1292,-7.1442,-7.1532,-7.1558,-7.1645,-7.1723,-7.1772,-7.1855,-7.1909,-7.2003,-7.1988,-7.2025,-7.2091,-7.2148,-7.2224,-7.2141,-7.2258,-7.2262,-7.223,-7.2365,-7.2368,-7.2482,-7.2329,-7.2332,-7.2334,0,-7.1218,-7.1308,-7.1467,-7.157,-7.1609,-7.1686,-7.1788,-7.1868,-7.1958,-7.1989,-7.206,-7.2086,-7.2191,-7.2153,-7.23,-7.2242,-7.2295,-7.2331,-7.2337,-7.2346,-7.23,-7.2375,-7.2519,-7.2534,-7.2361,-7.2359,-7.2357,0,-7.127,-7.1431,-7.1548,-7.1594,-7.1717,-7.1771,-7.1825,-7.1912,-7.1974,-7.2063,-7.2104,-7.2204,-7.2258,-7.2337,-7.2389,-7.2356,-7.2531,-7.2497,-7.2559,-7.2557,-7.259,-7.2586,-7.2741,-7.263,-7.263,-7.2629,-7.2629,0,-7.1387,-7.1483,-7.1573,-7.1644,-7.1754,-7.181,-7.1917,-7.1971,-7.205,-7.2133,-7.2164,-7.224,-7.2307,-7.2394,-7.2436,-7.2551,-7.2576,-7.2603,-7.2612,-7.2598,-7.2594,-7.2629,-7.2622,-7.2634,-7.2633,-7.2632,-7.2631,0,-7.1461,-7.1525,-7.1654,-7.1762,-7.1792,-7.1867,-7.196,-7.2031,-7.2083,-7.2188,-7.2215,-7.2297,-7.2401,-7.2463,-7.2594,-7.2622,-7.2749,-7.2756,-7.2718,-7.2721,-7.2778,-7.2771,-7.2958,-7.2985,-7.2858,-7.286,-7.2861,0,-7.1529,-7.1604,-7.1721,-7.178,-7.1835,-7.1928,-7.1992,-7.2052,-7.2116,-7.2228,-7.2285,-7.2392,-7.2479,-7.2645,-7.2716,-7.2817,-7.2825,-7.2884,-7.284,-7.2824,-7.2823,-7.2816,-7.2824,-7.289,-7.2891,-7.2892,-7.2892,0,-7.1642,-7.1672,-7.1762,-7.1866,-7.1942,-7.2025,-7.2109,-7.2155,-7.2229,-7.2301,-7.2409,-7.2477,-7.2613,-7.2718,-7.2827,-7.2882,-7.29,-7.2907,-7.2926,-7.291,-7.2883,-7.2896,-7.2734,-7.2901,-7.29,-7.2899,-7.2899,-7.2898,-7.1713,-7.1782,-7.1876,-7.1977,-7.2047,-7.2126,-7.2198,-7.2261,-7.2352,-7.2467,-7.2499,-7.2611,-7.2704,-7.2851,-7.291,-7.3,-7.299,-7.3018,-7.3024,-7.3029,-7.303,-7.2873,-7.302,-7.302,-7.302,-7.302,-7.3019,0,-7.1826,-7.1889,-7.1982,-7.2099,-7.218,-7.2193,-7.2288,-7.2353,-7.2452,-7.2538,-7.2625,-7.275,-7.2853,-7.2935,-7.3041,-7.3097,-7.3108,-7.3123,-7.3117,-7.313,-7.3033,-7.3005,-7.3113,-7.3113,-7.3113,-7.3113,-7.3113,-7.3113,-7.1893,-7.201,-7.2052,-7.2205,-7.2268,-7.2379,-7.2432,-7.2505,-7.2574,-7.2712,-7.2799,-7.2852,-7.2937,-7.3051,-7.3147,-7.3168,-7.3205,-7.3218,-7.324,-7.3147,-7.3137,-7.3127,-7.31,-7.3226,-7.3226,-7.3329,-7.333,-7.3331]},{"header":{"parameterUnit":"m.s-1","parameterCategory":1,"la1":30.2991,"la2":30.254,"lo1":-89.0895,"lo2":-89.0444,"dx":0.0017,"dy":0.0017,"nx":28,"ny":28,"refTime":"2022-12-13T15:00:00:Z","depth":0,"parameterNumber":3,"parameterNumberName":"V-component_of_WINDS"},"data":[0,0,0,0,0,0,0,0,0,0,0,0,0,0,0,0,0,0,0,0,0,0,0,0,0,0,0,0,0,0,0,0,0,0,0,0,0,0,0,0,0,0,0,0,0,0,0,0,0,0,0,0,0,0,0,0,0,0,2.6813,2.6814,0,2.6931,2.6933,2.6934,2.7013,2.7014,2.7014,2.7015,2.7131,2.7134,2.7136,0,0,0,0,0,0,0,0,0,0,0,0,0,2.6654,2.6656,2.6813,2.6814,2.6816,2.6931,2.6933,2.6934,2.7013,2.7014,2.7015,2.7015,2.713,2.7133,2.7137,0,0,0,0,0,0,0,0,0,0,0,0,0,2.6742,2.6657,2.6812,2.6869,2.6875,2.6931,2.6933,2.6935,2.7013,2.7014,2.7015,2.7016,2.7129,2.7133,2.7137,2.7144,0,0,2.7149,2.715,0,0,0,0,0,0,0,0,2.6737,2.6748,2.6859,2.6865,2.6872,2.6959,2.6919,2.7005,2.7013,2.6961,2.7015,2.7016,2.7073,2.7081,2.7102,2.7149,2.7154,2.7149,2.7151,2.7153,2.7154,0,0,0,0,0,0,0,2.6731,2.6743,2.686,2.6861,2.6869,2.6888,2.6902,2.6936,2.701,2.6965,2.6971,2.6985,2.7077,2.7098,2.7105,2.7156,2.7149,2.7152,2.7155,2.7156,2.722,2.7219,0,0,0,0,0,0,2.6716,2.6738,2.6856,2.6863,2.6806,2.6891,2.6906,2.693,2.701,2.7023,2.6984,2.6988,2.7091,2.71,2.7109,2.7125,2.7153,2.7157,2.7159,2.7221,2.722,2.7219,0,0,0,0,0,0,2.6713,2.6726,2.6851,2.6802,2.682,2.6892,2.6919,2.6932,2.6953,2.7024,2.7038,2.6992,2.7092,2.7104,2.7136,2.713,2.7158,2.7162,2.7221,2.722,2.722,2.7156,0,0,0,0,0,0,2.6708,2.6724,2.6727,2.6802,2.6822,2.6876,2.6919,2.6934,2.696,2.6967,2.7035,2.7047,2.7093,2.713,2.714,2.7136,2.7165,2.7222,2.7221,2.722,2.7158,2.7153,2.7147,0,0,0,0,0,2.6702,2.6703,2.6727,2.6741,2.6828,2.6875,2.6887,2.6941,2.6959,2.6964,2.701,2.7045,2.713,2.7133,2.7144,2.7142,2.7223,2.7221,2.722,2.7161,2.7154,2.7148,0,0,0,0,0,0,2.6623,2.6713,2.6741,2.6767,2.6813,2.6889,2.6895,2.6931,2.6972,2.6976,2.704,2.7055,2.7081,2.7115,2.7116,2.7155,2.7181,2.7181,2.7132,2.7125,2.712,2.7111,2.7168,0,0,0,0,0,2.6609,2.6641,2.6718,2.6733,2.6755,2.6821,2.6844,2.6882,2.6932,2.6951,2.7,2.7046,2.7084,2.7106,2.7144,2.7164,2.7182,2.7169,2.7163,2.7158,2.7158,2.7174,2.717,2.7215,2.7215,2.7215,0,0,2.6579,2.6633,2.6648,2.6718,2.6759,2.6791,2.6837,2.6867,2.6892,2.6955,2.699,2.7028,2.7084,2.7111,2.7125,2.7139,2.715,2.7157,2.7152,2.7155,2.7173,2.7168,2.7164,2.7214,2.7214,2.7214,0,0,2.6542,2.6585,2.6604,2.6645,2.6707,2.6752,2.6756,2.6828,2.6856,2.6892,2.6942,2.6972,2.7034,2.7073,2.7101,2.7084,2.7119,2.7095,2.7065,2.708,2.7077,2.7074,2.707,2.7067,2.7094,2.7094,2.7094,0,2.6496,2.6547,2.6608,2.6638,2.6668,2.6731,2.6751,2.6787,2.6857,2.6877,2.6893,2.6976,2.7017,2.7056,2.7053,2.7073,2.7081,2.7086,2.7073,2.7071,2.7069,2.7066,2.7064,2.7091,2.7091,2.7092,2.7092,0,2.649,2.6525,2.6532,2.6602,2.6634,2.6658,2.6723,2.6747,2.6784,2.6827,2.6865,2.6919,2.697,2.6982,2.7017,2.7027,2.7035,2.7061,2.7088,2.7061,2.7059,2.7057,2.7086,2.7087,2.7088,2.7089,0,0,2.6402,2.651,2.6512,2.6546,2.6621,2.6649,2.6678,2.6731,2.6751,2.6799,2.6825,2.6879,2.6905,2.6937,2.6977,2.699,2.6977,2.7016,2.7018,2.7007,2.6994,2.6973,2.6971,2.7001,2.7001,2.7001,2.6989,0,2.6377,2.6433,2.6491,2.6526,2.656,2.6623,2.6648,2.6697,2.6739,2.6775,2.6821,2.6859,2.689,2.691,2.6926,2.6975,2.6975,2.6976,2.7026,2.7027,2.701,2.697,2.6948,2.6934,2.6989,2.6989,2.6988,0,2.6354,2.6402,2.6442,2.6518,2.6535,2.6556,2.6612,2.6645,2.6703,2.6733,2.6771,2.6815,2.6849,2.6873,2.6922,2.6922,2.6946,2.6973,2.6974,2.698,2.7005,2.6975,2.6931,2.6929,2.6987,2.6988,2.6988,0,2.6288,2.6363,2.6398,2.6425,2.6514,2.6528,2.6566,2.6625,2.6655,2.6703,2.6724,2.6774,2.6802,2.684,2.6897,2.6909,2.694,2.6969,2.6967,2.6965,2.6969,2.6968,2.6928,2.6984,2.6984,2.6984,2.6984,0,2.6254,2.6276,2.637,2.6391,2.6418,2.6486,2.6511,2.6554,2.6607,2.6638,2.6694,2.6721,2.6795,2.6832,2.6876,2.6911,2.6923,2.6948,2.696,2.6943,2.694,2.6959,2.6962,2.6984,2.6984,2.6984,2.6984,0,2.6185,2.6248,2.629,2.6373,2.6395,2.6411,2.6483,2.6506,2.6553,2.6592,2.6604,2.6678,2.6725,2.6786,2.685,2.6881,2.691,2.6928,2.6891,2.6898,2.6893,2.6893,2.6864,2.6864,2.6919,2.6918,2.6918,0,2.6158,2.6178,2.6264,2.629,2.6327,2.6367,2.64,2.6467,2.6498,2.6569,2.6583,2.6635,2.668,2.6751,2.681,2.6861,2.688,2.6867,2.6888,2.6872,2.6882,2.688,2.6883,2.6861,2.686,2.686,2.6859,0,2.6106,2.6138,2.6183,2.624,2.6277,2.6324,2.6374,2.6392,2.647,2.6502,2.6552,2.6587,2.6656,2.6706,2.6766,2.6804,2.6845,2.6853,2.6855,2.6838,2.6816,2.683,2.6877,2.6852,2.6853,2.6853,2.6854,2.6854,2.6058,2.608,2.6145,2.6194,2.624,2.6286,2.6313,2.6366,2.6409,2.6472,2.651,2.6558,2.6619,2.6704,2.6741,2.678,2.6796,2.6799,2.68,2.6799,2.6795,2.6811,2.6791,2.6792,2.6792,2.6792,2.6792,0,2.601,2.6057,2.6101,2.6171,2.621,2.6249,2.6307,2.6337,2.638,2.6434,2.6479,2.6537,2.6588,2.6653,2.6708,2.6727,2.6747,2.6739,2.6738,2.6747,2.6777,2.677,2.6722,2.6722,2.6722,2.6722,2.6722,2.6722,2.599,2.6029,2.6069,2.6132,2.6179,2.6229,2.6259,2.6303,2.6347,2.6411,2.6455,2.6498,2.6557,2.6618,2.6666,2.6684,2.6702,2.6689,2.6712,2.6738,2.6745,2.675,2.6744,2.6692,2.6692,2.6679,2.6679,2.6679]}]]